Theta_e
305 306 305 306 305 305 305 304 304 304 304 305 306 305 305 304 304 305 305 305 306 306 305 305 305 305 305 305 304 305 306 306 306 307 308 309 309 309 310 310 310 311 312 313 314 314 316 316 317 318 316 313 312 312 315 317 320 323 324 323 323 325 326 319 315 319 322 323 325 325 325 325 323 322 324 323 321 319 317 316 317 315 311 311 311 310 315
305 306 305 306 306 305 305 304 304 304 303 304 305 305 304 303 304 305 305 305 305 305 304 305 305 305 305 305 305 305 306 306 307 308 308 309 309 309 310 310 310 311 311 312 313 314 315 316 316 316 316 313 311 312 314 316 318 319 320 322 321 321 324 320 316 318 319 319 320 321 322 323 322 323 325 324 324 323 321 320 319 316 313 312 312 309 314
305 306 305 305 306 305 305 305 305 304 303 303 305 305 304 304 304 305 305 305 305 304 304 304 305 305 305 305 305 306 306 307 308 308 307 308 308 308 310 309 309 311 311 312 313 313 314 315 315 315 315 313 311 311 313 314 315 315 317 319 319 322 326 323 317 317 317 316 316 316 318 320 321 324 324 324 324 322 320 316 314 314 316 315 312 310 316
305 305 305 306 306 305 305 305 304 304 303 303 305 306 304 303 304 304 304 305 305 304 304 304 304 304 304 305 306 306 305 306 307 307 307 307 307 308 309 309 309 310 311 312 312 312 313 314 315 315 315 313 312 311 312 313 314 316 317 317 319 324 328 328 326 323 320 320 321 322 323 319 316 319 323 324 325 324 321 315 312 315 317 314 315 317 317
304 305 305 306 306 305 305 305 304 305 303 303 305 306 303 303 303 303 304 305 304 304 304 304 304 304 304 305 306 305 305 305 306 306 306 307 307 308 308 308 308 309 310 312 313 312 313 313 314 314 314 314 312 311 312 313 314 316 316 315 319 324 324 326 331 327 322 322 323 323 324 321 317 318 320 322 324 324 320 315 315 320 316 312 319 324 318
305 305 305 306 306 306 306 305 305 304 303 304 305 305 303 303 303 303 304 304 304 304 304 304 304 304 304 305 305 305 305 305 305 306 306 306 307 308 309 308 307 308 308 311 313 314 314 314 314 314 314 313 313 312 313 313 313 314 313 314 318 322 321 322 324 322 320 320 320 320 323 323 322 322 321 322 324 323 320 318 321 324 318 315 323 327 323
304 305 305 305 306 306 306 305 305 304 303 304 305 304 303 304 303 303 303 303 303 303 303 303 304 304 304 305 305 305 304 304 305 305 306 307 307 307 308 307 306 307 308 309 312 314 314 315 315 314 314 313 313 314 314 313 313 312 313 314 316 319 322 322 319 318 319 319 319 320 321 321 322 323 323 324 324 323 322 323 324 325 323 324 329 329 328
304 305 305 305 305 306 306 306 305 305 304 305 306 305 304 304 303 304 304 303 303 303 303 303 304 304 305 305 305 305 304 304 305 304 305 307 307 306 306 306 306 306 307 308 310 311 310 311 312 311 312 313 313 314 314 313 312 312 312 313 314 317 320 320 318 317 319 318 318 319 320 320 319 320 322 323 323 323 323 324 325 325 325 327 328 326 328
304 304 305 305 305 305 306 306 306 305 305 305 305 304 304 304 304 304 304 304 304 304 303 303 303 304 305 305 304 304 304 304 305 305 305 307 306 305 305 305 306 306 307 307 309 309 308 308 309 309 310 311 311 312 312 312 311 312 312 313 314 315 317 317 317 318 317 317 318 318 318 318 317 317 320 321 320 321 321 323 325 324 323 325 323 321 325
303 303 304 305 305 305 306 306 306 305 305 305 306 304 304 305 304 304 304 304 304 303 303 303 303 303 304 304 304 303 304 304 304 305 306 306 306 305 305 305 306 307 307 307 308 307 306 306 307 307 308 308 309 309 310 310 310 311 312 313 313 314 315 316 316 317 317 316 317 316 316 317 316 318 321 322 322 323 323 324 326 326 325 324 321 322 327
302 301 301 302 304 305 305 306 306 306 305 306 306 305 304 304 304 304 304 304 303 303 303 303 303 303 303 303 303 303 304 304 304 305 305 305 304 304 304 305 306 307 308 308 307 306 306 306 306 307 307 307 307 308 308 309 309 310 311 312 313 313 314 315 316 317 317 316 316 316 317 317 319 322 324 323 323 323 322 322 324 326 326 326 325 327 330
302 301 301 302 304 304 305 306 306 306 305 305 305 305 305 305 305 305 304 304 303 302 303 303 303 303 303 303 303 303 304 304 304 304 305 305 305 304 304 305 306 307 307 306 305 305 306 307 307 307 307 307 307 307 307 308 309 309 310 311 312 314 314 314 316 317 317 316 317 318 318 319 321 326 328 325 325 326 327 329 331 329 328 329 328 329 330
301 300 301 303 305 305 305 305 306 306 306 305 305 305 305 305 305 305 305 304 304 303 303 303 303 303 303 303 303 303 303 304 304 304 304 304 304 304 304 305 306 307 306 305 305 307 307 307 308 308 308 308 308 308 308 308 308 309 309 310 311 312 313 314 315 316 316 316 317 319 320 320 321 325 328 328 330 332 329 328 329 331 334 336 335 335 335
300 300 302 304 305 305 305 305 306 306 306 306 305 305 305 305 305 305 305 305 304 303 303 303 303 303 303 303 303 303 303 303 304 304 304 304 304 304 304 304 305 306 305 305 306 307 308 308 308 308 308 309 310 310 309 308 308 308 308 309 310 311 312 314 314 316 317 316 316 317 318 318 319 324 328 330 331 333 331 326 328 336 340 341 343 343 342
300 301 304 305 305 305 306 306 306 306 307 306 306 305 305 305 305 305 305 305 304 303 303 303 303 303 303 303 303 303 303 303 304 304 304 304 305 304 304 305 306 306 306 306 308 309 309 308 308 308 308 308 309 310 310 309 308 308 308 309 310 311 312 314 314 314 316 316 316 317 317 317 319 323 328 331 331 333 335 329 330 341 343 340 344 347 346
301 303 305 306 305 305 306 306 306 306 307 307 306 305 305 305 305 305 305 305 304 304 304 304 303 303 303 303 303 303 303 304 303 304 304 305 305 304 304 306 307 306 306 307 309 310 309 308 307 307 308 309 310 311 311 311 310 310 309 309 310 310 311 313 313 313 314 316 316 317 317 318 322 326 329 329 327 331 334 326 326 340 345 340 343 346 345
304 305 306 306 306 306 306 306 306 306 307 308 307 306 305 305 305 305 305 305 304 304 303 303 303 303 303 303 303 303 303 304 303 303 304 304 304 304 305 306 306 305 306 308 309 309 309 308 306 307 308 309 309 309 310 310 310 313 313 310 310 311 311 312 313 313 315 316 316 316 315 318 325 328 328 329 328 331 332 325 326 340 344 340 343 345 344
305 305 306 306 306 306 306 307 307 307 308 308 308 306 306 305 305 305 305 305 304 304 303 303 303 303 303 303 304 304 303 303 303 304 304 304 304 305 306 305 305 305 307 308 308 309 309 308 307 307 308 309 309 309 311 311 311 314 315 313 313 313 312 312 312 312 313 314 315 316 315 318 323 323 324 328 326 324 324 325 332 341 341 339 342 343 343
305 305 305 306 306 306 306 307 307 307 308 309 308 307 306 306 305 304 304 305 304 304 304 304 304 304 304 304 303 303 303 303 303 304 303 303 304 305 305 304 305 306 307 308 309 308 308 308 308 307 308 309 309 310 312 313 313 314 315 315 315 315 314 313 313 312 313 314 314 314 315 317 321 320 319 322 320 319 325 333 339 341 340 341 342 342 343
306 306 306 306 306 306 306 307 307 307 308 309 309 307 306 306 305 305 304 305 305 304 304 304 304 304 304 304 303 303 303 303 304 304 303 303 304 304 304 305 306 307 308 308 308 308 307 307 308 308 307 307 310 311 311 311 311 312 313 314 314 315 315 314 313 313 314 314 314 314 315 319 323 322 322 323 323 327 335 339 338 338 340 342 342 343 343
306 306 307 307 306 306 306 307 308 308 308 309 309 308 307 306 306 305 304 305 305 305 304 304 305 305 304 304 304 303 303 303 303 304 303 303 304 303 304 305 305 306 307 308 307 307 308 307 308 308 307 308 309 309 309 309 309 310 311 312 313 314 315 316 316 316 315 315 315 316 318 320 322 322 324 327 329 333 337 338 337 337 339 340 342 343 341
306 307 307 306 306 307 307 308 308 308 308 308 308 309 308 307 306 305 305 305 305 304 305 305 305 305 305 304 304 304 304 304 304 304 304 303 304 304 304 304 305 305 306 307 306 306 307 307 307 307 307 307 307 308 308 308 309 310 311 312 313 314 315 315 316 317 317 316 316 317 319 319 319 320 323 326 327 328 331 334 337 338 337 338 341 341 339
306 306 306 306 307 307 307 308 308 308 308 308 308 308 309 308 306 306 305 305 305 305 305 305 305 305 305 305 305 305 304 304 304 304 304 303 304 304 303 304 305 305 305 305 305 306 307 308 308 308 308 308 308 308 308 308 308 309 310 311 312 313 313 313 315 315 315 316 316 317 317 318 318 318 321 322 322 322 325 330 334 337 337 338 339 339 339
306 306 307 307 307 307 307 308 308 308 308 308 307 308 308 308 307 306 305 305 305 305 305 305 305 305 305 305 305 305 305 304 304 304 304 304 304 304 304 304 304 305 306 306 306 307 308 308 309 308 308 308 308 308 307 307 308 309 308 309 310 311 311 312 313 314 314 315 316 316 317 318 318 318 319 320 319 320 324 329 333 335 336 336 338 339 340
306 306 307 307 307 307 307 307 308 308 308 308 307 307 308 308 307 306 305 305 305 304 305 305 305 305 305 305 304 304 304 304 304 305 304 304 304 304 304 305 305 305 306 307 307 307 308 308 308 308 308 308 308 308 308 308 309 309 309 309 310 311 311 312 312 313 313 314 314 314 315 316 316 316 316 316 317 319 322 327 330 332 334 335 336 339 340
306 306 307 307 307 307 307 307 308 308 308 308 308 308 308 308 308 306 306 306 305 305 304 305 305 305 304 304 304 304 304 304 304 305 305 305 305 304 305 306 306 306 307 307 307 307 308 308 308 308 308 309 309 309 310 309 309 310 310 310 309 310 311 311 312 312 312 313 313 314 315 315 315 316 317 317 319 321 323 325 327 329 332 335 335 337 338
306 306 307 307 307 307 307 307 307 307 307 308 308 308 308 308 308 307 306 306 306 305 304 305 305 305 304 304 305 305 305 305 305 305 305 305 305 305 305 305 305 306 306 306 306 307 308 308 308 308 308 308 309 309 309 309 309 309 310 310 310 311 311 311 311 312 311 312 313 315 315 316 316 317 318 318 318 319 320 323 325 327 330 334 336 336 338
306 306 307 307 307 307 307 307 307 307 307 308 308 308 308 308 308 308 307 306 306 306 305 305 305 305 304 305 305 305 305 305 305 305 305 306 305 305 306 305 305 305 305 305 306 307 307 308 308 307 307 308 309 309 309 309 310 309 310 310 310 311 311 310 311 311 312 313 314 314 315 315 315 316 316 316 317 317 318 321 324 325 326 331 334 336 338
306 307 307 307 307 307 307 307 307 307 307 308 308 308 308 308 308 308 307 306 305 305 305 304 305 305 305 305 306 305 305 306 305 305 306 306 306 306 306 306 305 305 305 305 306 306 306 307 306 306 307 309 310 310 309 309 309 309 310 311 311 311 311 311 311 312 312 312 312 313 313 314 314 314 315 315 316 317 318 319 321 322 324 328 332 334 336
307 307 307 307 307 307 307 307 307 308 308 308 309 309 309 309 308 307 307 307 306 305 305 304 305 306 306 305 305 305 306 306 306 306 306 307 306 307 307 306 306 306 306 306 306 306 306 306 306 306 307 307 309 309 309 308 309 309 310 311 311 311 312 312 312 312 312 312 312 313 313 313 313 313 314 314 315 317 317 318 320 322 323 327 331 333 334
307 307 307 307 307 307 307 308 308 308 308 308 309 310 311 310 308 306 307 307 306 306 306 305 305 306 306 306 306 306 307 307 307 307 307 307 307 307 307 306 306 306 306 306 306 307 307 307 307 307 307 307 308 309 309 309 309 310 310 311 312 312 312 312 312 312 312 312 312 312 311 312 312 313 314 315 315 316 317 318 320 322 324 327 330 332 332
307 307 307 307 307 307 308 309 309 309 309 309 309 310 309 308 307 306 306 307 306 306 306 305 305 306 306 307 307 307 307 308 308 308 308 307 307 307 307 307 306 306 307 307 307 308 308 307 307 307 308 308 310 311 310 310 310 310 310 311 312 312 313 313 312 312 312 312 312 312 312 312 313 313 314 315 315 316 317 319 320 323 326 328 330 331 332
307 307 307 307 308 308 309 310 310 310 310 309 309 309 308 308 307 306 306 306 306 305 305 304 304 305 306 307 307 308 308 308 309 309 309 308 308 307 307 307 307 307 307 308 308 308 308 308 308 308 309 309 311 311 311 310 310 310 310 311 312 312 313 313 312 312 313 313 312 312 313 312 313 314 314 315 316 317 318 320 322 325 328 328 329 329 330
308 308 308 308 309 309 310 310 310 310 310 310 311 310 309 308 307 306 305 305 305 304 303 303 304 305 306 306 308 309 309 309 310 310 311 312 311 309 309 308 308 308 308 308 308 309 309 308 309 310 310 310 311 312 311 311 310 310 310 311 311 312 312 313 313 314 314 314 312 311 312 312 312 313 314 315 315 316 318 320 324 327 329 328 328 328 329
309 309 309 309 310 310 310 310 311 312 312 312 311 310 309 309 307 305 304 305 304 303 303 303 303 305 306 307 309 310 309 310 310 311 312 313 312 311 311 311 310 309 309 308 309 309 310 309 310 311 312 312 313 312 312 311 311 312 312 312 312 313 314 316 316 316 316 315 313 311 311 312 312 313 315 316 316 317 319 322 325 328 329 328 327 328 329
310 310 310 310 310 311 312 312 313 313 313 312 311 310 309 309 307 305 304 304 305 304 303 303 303 304 306 308 309 309 309 310 312 311 312 313 312 312 313 313 312 311 310 310 310 311 310 311 312 312 313 314 314 314 313 313 314 315 314 313 314 315 316 317 318 317 316 315 314 313 313 313 314 315 316 317 318 320 322 325 327 329 328 328 328 330 332
312 311 311 311 312 314 316 315 313 312 311 311 310 309 309 308 306 305 304 304 305 305 304 303 304 305 306 307 308 308 309 311 312 313 313 314 314 314 314 314 313 313 312 312 312 313 313 314 314 313 313 314 315 315 314 314 315 315 315 315 315 316 317 318 318 318 317 316 316 316 315 315 315 316 317 318 321 323 325 327 329 329 329 329 330 332 333
313 313 314 316 317 317 317 316 313 310 310 310 310 311 311 309 308 307 306 306 307 307 304 303 304 305 305 306 308 309 310 311 312 312 313 314 315 315 315 314 314 314 313 313 313 313 314 315 314 313 314 315 314 313 313 314 314 315 316 317 317 318 319 319 319 318 318 319 319 318 318 317 317 317 318 320 323 325 326 328 329 329 328 327 329 332 332
315 316 318 320 318 316 316 314 311 310 311 311 312 314 314 312 312 311 309 308 308 307 305 304 305 305 305 306 308 309 309 310 311 311 312 313 314 314 314 314 313 313 313 313 313 312 313 313 313 313 314 313 311 311 313 315 317 317 317 318 319 320 320 321 321 320 320 320 320 321 321 320 320 320 322 324 326 327 327 327 328 327 326 326 328 331 332
316 317 318 318 316 315 313 312 310 311 313 315 315 316 316 315 316 316 314 313 313 311 307 306 307 306 305 307 309 311 310 310 311 312 312 312 312 312 313 313 312 312 313 314 312 310 311 312 313 313 312 311 310 312 314 315 316 317 318 318 319 320 321 322 323 324 323 321 321 322 323 323 323 324 326 327 328 328 328 327 327 327 327 329 330 331 331
316 316 316 315 314 312 312 312 313 315 317 318 317 316 317 317 317 317 317 318 318 316 312 311 312 311 309 307 309 311 311 311 311 311 311 311 311 311 311 311 310 311 313 314 311 309 309 312 313 312 310 309 311 313 314 314 315 317 317 317 318 321 323 324 325 325 325 325 324 324 323 323 325 326 326 327 329 329 328 326 327 329 330 332 332 332 331
313 312 312 311 311 312 314 315 317 318 317 316 316 316 317 318 318 318 318 318 319 319 318 318 319 318 314 310 310 312 313 312 312 312 312 311 311 311 311 310 310 312 315 314 311 310 310 312 312 310 308 309 311 312 313 314 315 316 316 317 318 320 322 324 325 325 326 326 327 326 324 323 325 326 327 328 329 329 327 327 329 332 332 332 332 333 332
311 310 311 313 314 316 317 316 315 316 315 315 316 318 318 318 319 320 320 318 318 319 319 319 321 321 317 313 313 314 314 313 313 314 313 313 312 313 313 312 313 314 315 313 312 311 311 311 310 309 308 310 312 312 312 313 314 314 315 316 317 319 319 319 321 323 324 326 327 327 326 326 326 327 327 328 328 328 328 330 331 329 327 327 328 329 329
314 314 316 317 316 316 316 315 314 315 316 315 316 319 320 319 319 321 321 319 319 319 319 318 320 321 320 319 319 318 317 316 315 315 316 316 316 315 315 315 316 317 315 313 312 312 311 310 309 308 309 311 311 311 311 312 312 313 315 315 316 317 317 317 317 319 320 321 323 323 324 324 324 324 324 325 326 327 327 328 327 325 324 325 326 326 326
317 315 315 315 314 315 316 316 315 316 317 317 317 318 319 319 319 320 319 319 319 320 320 319 319 319 318 320 320 319 319 319 318 317 318 318 316 316 316 316 317 316 314 312 312 312 311 309 308 308 310 311 311 310 311 311 312 313 314 314 315 315 315 315 316 317 317 317 318 318 319 319 319 319 319 320 321 322 323 324 324 324 324 325 325 324 324
316 313 313 315 315 315 316 316 315 315 317 317 316 317 317 317 318 318 317 317 318 318 319 320 320 319 318 318 319 318 318 318 317 317 317 318 316 315 316 316 314 313 312 311 312 311 310 309 309 309 311 311 310 310 310 311 311 312 313 314 314 315 315 315 315 316 316 316 316 316 316 316 316 316 316 316 316 317 319 320 321 321 321 321 321 321 321
315 313 313 315 316 315 315 316 316 315 315 315 315 315 315 316 317 316 316 316 318 317 316 317 319 319 317 316 316 316 316 316 315 315 315 316 315 314 313 313 312 312 311 311 311 310 309 309 310 311 311 311 311 310 310 310 310 311 312 313 313 314 314 314 314 315 315 315 315 314 314 314 314 314 314 314 313 314 314 315 315 316 316 317 317 317 317
314 314 314 315 315 315 315 315 314 314 313 314 314 314 314 315 315 315 315 316 317 317 317 317 318 317 316 314 314 314 314 314 314 314 314 314 314 313 312 312 311 311 311 310 310 310 310 311 312 312 311 311 311 310 311 310 310 310 310 311 311 312 313 314 314 314 314 314 314 314 314 313 313 313 313 312 312 312 312 312 312 313 313 314 314 314 314
313 313 315 315 315 314 314 314 313 313 313 313 313 313 314 314 314 314 315 316 317 317 316 316 316 316 315 314 314 314 314 314 313 312 312 312 313 312 312 311 311 310 310 310 311 311 311 312 312 311 311 311 311 310 310 311 311 310 310 310 311 311 312 313 313 314 314 314 313 313 313 312 312 312 312 311 311 311 311 311 311 311 311 312 313 313 313
313 313 314 314 314 314 314 313 313 313 313 313 313 313 313 313 314 314 315 316 316 315 314 314 314 314 314 313 313 313 314 315 313 312 312 312 312 311 311 311 310 311 311 312 312 312 312 311 311 311 311 310 310 310 310 310 310 310 310 311 311 311 311 311 312 313 314 314 313 313 312 312 312 312 311 311 310 310 310 310 310 311 311 311 312 312 312
313 313 313 313 313 314 313 313 313 313 313 313 313 313 313 313 313 314 315 316 315 314 314 314 314 312 313 314 314 313 314 314 313 312 312 313 312 311 311 311 311 312 312 311 311 311 311 310 310 310 310 310 310 310 309 309 310 310 310 310 310 311 311 311 311 312 312 312 312 312 312 312 312 311 311 310 310 310 309 309 309 309 309 310 310 311 310
313 313 313 313 312 312 313 313 313 313 313 312 312 313 313 313 313 314 315 315 314 314 313 313 313 312 313 314 314 314 313 313 313 313 313 313 312 311 312 312 311 311 311 310 309 309 309 309 309 310 309 309 309 309 309 310 310 310 310 310 310 310 310 310 311 311 311 311 311 311 311 311 311 311 310 310 310 310 310 309 308 308 308 308 308 308 308
Wind_Speed
24 25 26 26 27 28 28 29 29 31 30 24 22 18 9 5 8 12 15 18 19 11 3 5 5 4 8 9 8 8 8 10 11 10 10 10 8 7 9 10 11 10 9 9 9 7 4 3 2 1 5 7 8 9 10 10 6 4 2 2 1 2 5 8 8 7 7 8 12 15 18 18 17 15 14 14 14 13 10 8 6 7 9 9 7 8 4
23 24 25 26 26 27 27 28 27 28 27 23 19 13 6 6 8 8 10 14 14 7 4 6 6 6 10 11 9 8 7 9 11 10 9 9 8 9 8 8 9 9 9 9 9 7 5 1 1 1 3 6 7 9 10 10 7 4 4 3 0 4 8 10 9 7 7 8 9 13 16 15 12 13 17 18 18 18 14 10 8 7 9 10 8 7 3
22 23 24 24 25 26 26 26 26 26 25 22 16 9 6 7 5 4 9 11 8 5 5 6 6 8 11 11 10 9 8 8 10 11 9 8 10 10 8 9 11 10 9 11 10 7 7 3 1 0 3 5 6 8 9 9 8 8 9 8 4 3 6 10 11 10 11 11 9 8 11 13 11 12 18 20 21 21 15 10 10 8 9 10 9 6 3
21 21 23 23 24 24 25 25 24 24 23 20 14 10 8 6 5 6 8 6 4 4 4 6 7 8 10 9 9 10 9 7 8 10 7 8 12 11 7 10 12 10 9 9 10 7 6 4 1 1 1 3 4 6 7 7 9 11 12 9 5 4 4 5 5 4 4 2 2 3 2 11 16 16 16 16 19 21 16 11 10 8 8 10 10 8 4
21 21 22 22 23 23 24 24 23 22 22 18 12 9 7 5 5 7 7 5 5 5 5 7 7 8 9 7 7 10 10 8 7 7 5 7 11 9 6 11 11 11 13 9 7 6 5 4 1 1 2 3 3 3 4 6 9 11 10 8 5 4 5 4 2 2 2 4 5 6 4 6 14 16 16 15 17 18 16 14 11 8 8 9 10 12 11
21 21 21 21 22 22 23 23 22 21 20 16 10 7 6 5 5 7 6 5 6 7 8 9 10 10 9 6 6 10 10 9 8 6 4 6 9 6 5 11 14 13 14 11 6 4 5 4 1 2 4 5 2 1 3 5 8 8 7 8 5 3 4 3 2 2 1 2 3 3 2 1 3 8 12 13 15 16 16 15 13 11 9 7 6 10 13
21 21 21 21 21 21 22 22 21 19 18 14 9 6 5 5 5 5 6 7 8 9 10 11 11 10 7 5 5 8 10 10 8 6 6 6 6 7 7 11 14 13 14 11 6 3 3 1 3 5 6 5 4 1 2 4 7 8 6 6 5 4 0 2 2 4 2 2 1 1 1 1 2 5 7 8 11 13 13 14 15 13 11 9 8 8 9
20 21 20 20 20 20 21 21 19 19 17 12 8 6 5 5 5 5 7 8 8 9 9 9 10 7 5 4 5 8 10 10 9 8 7 5 6 8 10 12 12 11 11 10 7 7 9 7 6 8 8 4 3 2 1 3 7 7 5 5 5 4 1 2 4 4 4 4 3 2 3 4 5 8 8 9 10 11 12 12 12 12 12 14 14 13 10
20 20 20 19 19 19 19 19 18 17 15 11 7 5 5 6 6 5 5 7 8 9 8 8 8 5 3 4 6 8 9 10 11 8 3 3 3 7 10 11 10 8 7 7 7 8 11 10 9 10 9 6 5 4 4 6 7 6 5 5 5 4 1 0 3 5 5 5 5 5 4 6 10 12 12 12 12 12 12 11 11 12 13 14 16 14 10
21 21 21 20 19 18 17 17 17 16 13 9 6 6 6 6 6 4 4 6 7 8 8 8 7 5 5 6 8 9 9 8 9 7 2 4 3 6 8 9 8 7 6 5 8 10 11 12 12 10 10 10 8 7 8 8 7 5 5 5 3 4 3 1 2 5 4 5 5 4 3 7 11 12 14 15 14 13 12 12 13 14 13 12 13 11 8
23 24 23 22 20 19 17 16 16 15 12 9 7 8 8 5 4 3 3 5 7 7 7 7 6 6 9 11 10 10 9 8 8 7 4 5 7 7 6 7 7 6 5 6 9 11 13 14 13 11 11 12 11 10 10 10 9 6 5 5 3 3 4 3 2 4 4 4 2 3 6 9 6 3 7 14 15 15 16 15 14 14 13 11 11 9 8
24 25 25 23 21 20 18 16 16 15 14 11 10 11 9 5 3 3 2 5 8 8 7 7 8 10 13 13 11 9 9 9 9 8 8 9 9 8 7 7 7 6 7 9 11 12 13 13 12 12 12 13 13 12 12 12 11 8 7 7 5 3 4 4 3 4 5 2 2 6 8 5 2 5 3 5 9 11 12 11 10 10 11 12 12 11 10
26 26 26 23 21 21 20 17 16 17 16 13 12 12 10 5 4 3 3 5 8 8 8 10 11 12 11 11 11 10 10 11 10 9 8 8 9 9 7 6 7 7 9 11 13 12 11 9 8 9 10 10 10 11 13 14 14 12 10 9 7 5 4 4 4 5 5 4 6 8 3 2 3 3 4 5 6 6 7 9 11 10 7 7 9 9 9
27 28 26 24 22 22 22 20 18 19 18 15 14 14 11 8 6 4 2 4 7 8 9 10 10 10 10 11 12 11 11 11 9 8 8 8 8 7 6 6 8 8 8 9 9 9 7 5 5 5 6 7 7 9 12 13 14 14 13 11 9 8 5 4 5 6 6 6 7 6 3 3 5 5 4 4 5 5 3 7 8 7 4 2 4 6 7
30 29 26 24 23 22 22 22 21 20 20 18 16 15 13 12 10 7 4 4 7 9 8 7 8 10 11 12 12 11 9 9 8 7 8 7 6 4 4 6 8 8 7 7 6 6 5 5 5 4 4 6 5 4 5 8 10 13 14 12 10 9 7 5 5 5 6 6 7 7 7 7 6 6 7 5 4 4 2 3 4 7 7 2 3 4 6
30 28 25 24 25 23 22 22 22 22 22 21 18 17 16 14 13 10 6 4 5 7 6 6 9 10 11 11 11 10 9 7 7 7 6 5 5 4 4 4 6 7 7 6 5 5 5 5 4 4 3 2 2 2 3 5 6 9 11 12 12 11 8 6 6 6 6 7 8 7 7 3 2 6 8 6 3 4 3 4 5 6 7 2 3 4 6
28 27 25 25 24 24 23 22 23 22 22 22 20 19 18 15 16 14 8 4 5 8 9 10 11 10 8 8 9 8 6 6 6 6 5 5 7 7 5 3 5 6 5 5 4 4 5 5 4 5 3 0 2 5 4 5 5 7 9 11 12 11 7 6 7 8 7 8 8 6 5 1 4 4 5 6 3 2 4 6 4 5 5 1 2 4 5
28 27 27 26 24 24 24 23 23 23 22 22 22 21 20 17 17 16 9 4 6 8 9 10 10 8 7 7 8 7 7 7 6 5 6 6 6 6 6 6 4 2 2 4 4 4 5 5 3 4 2 1 2 6 3 3 5 5 6 7 9 9 8 7 8 8 8 9 8 6 5 1 2 3 3 3 0 3 4 3 2 4 2 2 2 4 5
28 28 28 27 26 25 25 24 24 24 22 21 21 20 21 19 19 19 11 5 6 8 8 9 10 10 10 9 8 7 7 8 6 5 6 5 4 6 8 6 3 1 2 3 4 4 5 4 1 2 4 1 2 3 3 2 3 2 3 5 7 8 8 8 8 8 8 8 8 7 6 1 2 4 4 2 3 3 1 2 2 1 2 2 3 4 4
28 28 28 28 27 27 26 25 24 23 22 21 20 19 20 20 22 23 17 8 6 8 12 14 15 14 12 11 10 9 8 8 7 5 6 6 5 8 7 3 1 1 2 3 3 3 3 3 1 1 4 3 1 2 3 3 4 3 4 5 4 5 6 8 9 8 7 8 8 8 5 4 7 6 4 3 3 3 5 6 5 3 5 5 4 3 3
29 29 29 29 29 28 26 25 24 23 22 21 20 19 19 20 22 25 24 16 8 6 8 10 12 14 13 13 14 14 13 12 10 7 7 7 5 5 5 2 2 3 2 2 3 2 1 3 2 2 4 3 2 3 4 4 5 5 4 5 5 6 5 6 6 5 5 9 8 3 2 4 6 5 3 3 6 8 9 9 7 5 6 5 5 5 5
30 30 30 29 29 28 27 25 24 23 22 21 20 19 18 19 22 24 26 22 15 10 10 10 12 17 20 20 21 20 19 18 17 13 10 8 6 6 6 6 6 4 2 3 4 2 2 3 3 3 4 4 4 5 5 5 5 4 4 5 5 3 1 2 3 3 4 7 6 7 10 9 6 6 6 9 11 11 11 12 10 8 6 5 5 7 7
31 31 31 30 29 28 27 26 25 23 22 22 21 21 19 18 21 23 23 21 16 14 16 17 17 18 20 20 20 20 19 19 19 18 15 10 7 6 7 7 6 4 3 4 4 4 4 4 4 4 5 4 5 6 6 6 5 4 4 6 5 3 0 1 3 5 7 9 10 10 12 13 11 9 9 10 11 11 11 11 10 9 8 7 7 7 7
32 32 32 31 30 29 28 27 25 24 24 23 22 23 22 18 20 23 20 14 9 8 11 12 11 11 11 11 11 11 12 13 14 15 16 14 9 6 6 6 5 4 3 3 3 3 4 4 3 3 5 5 5 6 6 6 5 4 5 7 7 6 4 3 5 7 7 7 8 9 12 13 13 12 12 12 13 11 9 9 9 9 9 8 8 7 5
33 32 32 31 30 29 29 27 26 26 25 24 23 23 21 17 18 23 19 10 5 3 5 6 7 8 9 10 8 7 7 8 10 11 14 17 15 11 7 5 5 6 4 3 3 3 4 4 3 5 6 4 3 5 6 6 4 4 5 7 6 3 1 4 8 9 9 9 10 12 15 17 15 14 12 12 12 12 11 10 11 11 10 9 8 7 4
33 33 32 31 30 30 29 28 28 27 27 25 24 23 21 17 16 23 20 10 4 4 5 6 5 5 5 7 8 9 9 10 12 12 14 17 19 17 14 9 7 7 6 4 4 4 4 4 5 6 6 4 3 5 6 6 6 7 7 8 7 5 5 6 8 9 9 11 12 13 14 16 16 14 11 9 10 12 13 12 12 14 13 11 9 8 4
32 32 32 32 32 31 30 29 29 29 28 26 23 21 20 17 15 20 20 11 3 2 5 5 3 3 6 10 14 15 14 14 14 14 15 17 18 19 17 13 9 8 6 5 5 4 4 5 6 7 7 5 5 6 7 7 8 8 9 9 9 9 8 8 8 9 9 10 10 9 10 11 11 10 11 13 13 13 14 14 13 14 15 12 10 9 5
31 31 32 32 31 31 31 32 31 30 28 25 21 18 16 15 14 18 20 18 11 4 3 4 3 6 9 10 11 10 10 10 11 12 14 15 16 17 16 13 10 8 7 7 5 4 5 7 7 7 6 5 6 7 7 7 8 8 9 9 9 9 10 9 8 9 11 11 10 9 9 10 12 13 15 15 14 13 15 15 13 13 15 14 11 10 6
31 31 31 31 31 33 34 33 31 28 24 19 14 11 10 9 11 15 19 22 19 9 3 5 5 5 6 7 7 8 9 10 11 12 13 13 14 15 14 11 9 8 7 7 6 6 7 7 6 6 5 3 3 5 6 7 9 9 10 11 11 11 12 12 12 13 15 15 13 11 11 14 16 16 16 16 14 14 15 16 14 13 14 15 13 11 7
31 31 31 31 33 35 34 31 28 24 17 10 7 5 3 3 6 12 16 22 23 14 4 4 4 3 5 7 9 10 10 10 11 12 13 13 11 11 12 11 9 8 7 7 7 7 6 6 6 7 7 6 4 4 5 7 9 10 12 13 12 12 13 12 13 14 15 14 12 11 13 16 16 16 17 17 16 15 15 16 15 13 13 14 13 10 7
32 32 33 34 35 34 31 26 20 14 6 3 3 2 1 2 1 6 10 18 22 14 4 3 4 3 4 5 7 8 7 7 7 9 11 12 10 11 13 12 9 8 8 7 7 7 7 6 7 7 7 8 6 5 6 9 10 12 15 14 11 11 12 12 12 14 14 13 13 14 16 17 15 14 16 17 16 15 14 15 15 14 14 15 13 9 6
35 35 35 35 33 29 22 16 10 4 3 6 4 1 0 1 2 4 7 14 16 9 1 1 3 3 3 3 4 7 8 8 7 7 8 9 9 9 11 11 8 8 9 7 6 6 6 7 8 8 8 7 6 5 7 10 11 15 17 14 9 9 11 12 12 14 14 13 13 15 17 18 16 16 16 16 14 14 15 15 15 13 13 13 12 8 5
37 38 37 34 28 19 11 9 8 6 4 6 5 3 3 4 2 4 10 12 9 3 2 1 3 3 2 3 4 5 7 6 5 5 6 7 7 6 7 8 7 7 8 7 5 4 5 7 8 8 8 6 5 5 7 12 16 19 19 16 12 11 13 14 15 15 14 13 14 16 18 19 17 17 17 16 15 15 15 15 13 11 11 12 12 9 6
39 37 32 26 18 9 6 9 9 8 6 4 2 1 3 6 3 9 15 13 6 4 3 1 2 3 3 3 2 2 3 3 3 4 4 5 6 5 5 6 5 5 7 8 6 5 6 6 6 7 7 6 5 6 8 14 18 19 17 17 17 16 16 16 16 15 14 14 16 18 20 20 18 18 18 17 17 16 15 15 14 12 11 12 13 10 7
35 29 23 17 8 3 8 9 8 5 4 5 5 4 7 7 4 16 17 9 4 2 2 1 2 2 3 4 2 0 2 4 4 3 2 2 4 5 3 4 5 5 5 5 6 7 7 6 5 6 6 5 6 7 9 13 16 15 15 16 17 16 16 16 14 13 13 13 15 17 19 19 20 19 18 18 17 17 16 16 14 12 11 12 12 8 5
27 19 13 8 4 5 5 5 7 6 4 4 4 4 5 4 11 18 13 4 2 3 2 2 3 2 3 3 2 2 2 4 3 2 1 1 2 3 2 3 4 4 3 4 6 7 6 4 4 5 5 5 7 7 8 11 14 15 17 19 17 15 15 16 16 15 16 17 18 19 18 19 20 18 16 16 16 16 17 16 14 12 12 12 10 7 5
17 11 6 3 3 2 2 3 6 9 7 2 3 6 9 10 12 12 7 1 2 3 2 1 2 2 3 3 2 2 2 2 2 1 1 1 0 1 2 2 2 2 2 3 4 4 4 2 2 5 6 6 7 10 13 15 17 18 19 18 15 14 16 17 17 19 21 20 20 19 18 18 18 16 15 16 17 16 16 15 13 11 11 12 10 7 6
16 10 4 0 1 3 3 3 8 11 5 6 9 8 7 6 5 4 3 2 2 3 3 1 2 2 2 2 2 2 2 2 3 2 1 1 1 0 1 2 1 1 1 2 2 3 3 2 2 4 6 6 9 14 17 17 17 17 16 14 13 15 16 14 14 18 18 16 16 16 16 17 17 16 16 18 17 16 15 12 9 8 10 11 9 7 7
15 9 3 2 4 5 4 8 12 8 2 7 6 3 2 2 1 1 2 2 2 2 2 2 2 2 3 3 2 2 1 2 2 2 2 2 2 1 1 1 1 2 2 2 3 3 3 3 2 3 5 7 12 16 17 16 14 10 9 10 13 15 14 12 12 14 15 13 14 14 14 16 17 17 16 15 13 12 11 9 7 7 10 11 9 8 8
11 6 3 4 5 5 8 12 10 2 3 4 2 1 1 2 2 1 1 1 0 1 2 2 2 3 4 3 2 1 1 0 2 2 2 2 2 2 2 2 2 2 2 2 2 3 3 3 3 3 5 9 13 15 16 16 14 12 10 10 11 12 13 12 10 9 10 12 12 10 10 12 13 13 12 11 10 9 9 9 9 10 11 10 8 8 10
8 6 3 4 6 8 10 10 6 1 1 2 2 2 3 4 3 2 3 5 5 2 1 2 1 1 3 4 3 1 2 1 0 0 1 1 1 1 2 2 2 2 2 2 2 3 3 3 3 5 8 11 15 16 17 16 15 15 17 16 14 11 9 8 4 2 4 6 6 6 7 8 9 9 10 10 9 7 6 7 10 11 10 9 8 9 13
6 5 5 6 8 7 5 5 3 2 2 3 3 3 4 4 4 4 5 5 4 3 2 2 3 2 2 4 3 2 1 2 2 1 1 2 2 1 2 2 2 2 3 3 3 3 3 4 5 6 9 13 15 16 17 18 17 18 20 20 17 14 12 9 5 2 1 1 2 5 8 9 8 7 7 6 6 6 6 8 9 7 7 8 9 11 14
8 5 4 4 4 3 2 3 3 3 3 3 4 4 5 5 4 4 4 3 3 5 5 4 3 2 2 2 2 1 1 2 2 1 1 1 0 1 2 3 3 3 2 2 3 4 5 6 7 8 10 12 14 15 16 17 17 18 19 20 18 17 18 17 13 9 7 6 5 6 7 7 7 7 6 5 5 6 6 6 5 8 11 12 10 11 15
7 4 2 1 2 3 4 3 3 4 4 4 4 5 7 7 6 5 5 4 5 6 7 7 6 5 4 1 1 0 1 2 2 1 1 0 1 2 3 4 3 3 2 2 5 5 5 5 7 10 11 12 13 14 15 16 16 16 18 21 22 21 21 20 17 16 16 15 13 12 10 9 11 12 9 6 6 6 5 7 13 18 19 17 15 16 18
4 3 3 3 4 4 4 3 3 4 5 4 4 4 6 7 7 6 6 4 4 5 7 8 8 8 7 3 1 2 2 1 0 1 2 2 4 5 4 2 2 3 3 4 6 6 6 8 10 12 13 14 15 15 15 16 16 16 17 21 24 24 22 21 20 19 18 18 18 17 15 13 13 13 12 14 17 15 10 12 19 22 20 18 18 18 18
3 4 4 4 5 5 4 4 5 5 4 5 5 6 6 6 6 6 5 5 5 5 6 7 7 7 7 5 3 3 3 3 2 3 3 3 5 6 3 2 3 5 6 7 7 7 8 11 11 11 12 15 15 14 14 14 14 15 16 18 21 23 23 23 22 21 19 18 19 18 15 13 13 14 16 21 25 23 19 21 27 27 22 19 19 20 21
3 3 3 3 4 5 5 6 5 5 6 6 6 7 7 6 5 5 5 5 5 5 5 6 5 5 5 4 4 5 5 4 4 4 4 3 5 4 3 4 5 5 6 8 8 6 7 9 9 10 11 13 13 13 14 13 14 16 16 16 17 19 21 22 22 21 21 21 20 18 15 14 15 18 20 22 24 24 25 29 32 31 28 26 26 27 26
3 3 3 3 4 5 7 7 6 6 7 7 7 8 8 7 6 7 7 6 5 5 5 5 4 4 4 4 4 5 6 5 6 6 4 3 3 3 4 5 6 4 4 5 6 6 7 8 8 10 11 11 11 12 13 13 14 17 18 17 16 17 18 19 19 20 21 20 18 16 16 17 20 21 21 21 21 24 28 31 32 32 31 30 29 28 27
4 3 4 3 4 5 7 7 7 7 8 8 8 9 9 8 8 8 8 7 6 6 5 4 4 4 4 3 4 5 6 6 5 6 6 5 5 4 4 6 7 5 4 4 4 5 6 7 8 9 11 11 10 11 12 12 13 15 16 16 15 15 15 16 18 19 20 18 16 15 17 19 21 22 20 17 17 21 26 28 28 28 29 29 27 27 26
6 4 4 5 5 6 6 7 8 9 9 9 9 9 9 9 9 9 9 8 6 5 4 4 4 5 4 4 4 5 6 5 4 6 7 8 7 6 5 7 6 4 3 4 4 4 5 6 7 9 10 11 11 12 12 12 12 12 12 13 15 16 16 18 18 18 18 19 20 20 20 19 18 18 17 16 19 22 25 25 24 23 25 26 26 25 25
5 5 5 6 7 7 7 8 9 10 9 9 9 9 9 8 9 10 10 9 6 5 6 6 5 4 5 6 5 5 4 3 4 7 7 6 5 5 6 7 5 4 4 4 4 4 5 6 7 8 9 10 11 11 11 11 12 12 13 15 17 19 21 22 22 21 21 22 23 22 19 18 18 18 20 22 24 24 21 20 21 23 24 23 23 22 22
4 4 5 6 6 6 6 7 7 8 8 8 7 8 8 8 8 10 11 9 7 7 7 6 5 6 6 6 5 4 4 4 6 8 7 5 4 5 5 4 4 4 5 5 5 6 6 7 7 8 9 10 10 11 11 11 11 13 15 17 18 18 19 21 22 22 22 22 22 20 18 18 20 22 23 23 22 17 13 14 18 22 22 21 21 21 22
Wind_Direction
351 351 351 351 351 351 353 356 356 356 359 360 352 341 332 338 322 322 338 339 331 325 344 9 351 1 359 337 329 339 332 327 328 329 333 326 318 306 280 270 272 268 270 270 261 263 282 298 309 49 76 55 31 12 358 348 331 294 256 147 92 260 222 218 217 199 203 200 183 195 207 201 201 206 204 206 209 208 212 220 215 211 216 216 224 242 231
350 350 350 350 350 351 353 355 355 357 1 358 349 342 342 332 309 310 341 343 334 339 15 0 347 354 346 337 344 352 350 350 345 338 342 343 334 316 299 295 293 286 278 265 257 258 252 237 17 351 75 64 29 13 6 358 4 20 1 355 303 219 208 208 213 197 185 187 185 195 204 206 211 208 204 210 211 208 212 223 230 234 222 213 218 232 203
347 348 348 348 349 351 352 354 355 355 359 360 351 340 335 328 315 326 348 346 344 10 23 354 344 350 342 339 349 354 359 9 359 344 343 351 340 317 310 323 312 300 282 254 243 255 260 254 14 86 94 74 39 16 8 6 18 21 360 338 303 249 214 208 211 207 198 193 189 196 199 200 209 211 205 208 210 208 209 217 222 226 225 221 225 227 134
344 344 346 345 347 351 351 353 355 353 357 2 351 335 336 337 337 348 343 339 350 13 13 352 347 347 341 339 347 347 350 3 3 352 351 0 345 321 324 346 333 329 327 268 228 235 266 265 237 180 110 74 51 20 6 18 17 356 347 342 303 252 220 223 236 234 224 189 92 3 263 200 199 203 202 203 209 209 208 216 219 216 223 228 228 231 203
342 341 342 342 346 349 349 351 354 352 356 1 349 330 340 346 342 349 343 329 338 351 352 351 349 341 336 337 337 337 342 350 358 4 4 1 349 322 334 12 2 349 347 318 248 230 237 226 205 84 33 31 54 38 14 24 9 343 345 358 327 238 198 216 272 348 3 13 23 9 335 208 196 197 196 197 204 209 213 219 219 211 223 228 214 219 229
340 338 339 340 344 348 346 347 352 353 354 359 353 340 351 349 336 348 345 321 325 335 335 334 331 329 331 330 324 329 340 348 356 4 342 343 359 344 342 8 2 347 344 332 296 248 224 206 139 47 20 3 349 90 87 46 11 347 355 16 351 262 199 188 244 286 326 343 359 6 347 241 191 194 194 192 197 208 219 226 226 224 233 242 215 212 227
337 337 337 337 340 345 345 344 347 352 352 351 347 346 355 340 324 340 341 321 313 316 318 318 317 324 329 326 332 334 338 346 351 341 318 323 5 7 353 357 352 342 340 334 334 2 330 312 60 22 357 352 338 309 128 75 21 358 359 20 0 303 240 80 298 275 237 232 293 329 285 232 222 215 206 199 203 212 220 227 231 237 246 258 260 249 243
336 336 335 335 336 338 341 341 341 348 350 345 343 352 353 337 330 333 326 318 313 311 314 313 311 319 322 321 348 342 331 343 347 334 332 342 0 3 356 349 343 337 335 330 335 6 355 341 0 353 335 338 352 334 35 34 8 354 355 10 351 323 53 42 318 274 215 205 217 231 253 256 249 238 226 217 214 214 217 222 226 234 243 251 258 262 256
335 334 332 332 332 332 335 336 336 343 346 339 335 348 343 326 325 325 311 311 315 313 317 319 310 313 326 329 343 335 327 342 342 337 25 77 349 348 345 337 333 325 322 320 317 337 339 321 317 324 315 311 325 321 326 342 341 342 352 351 331 320 329 45 285 247 206 181 192 218 251 269 259 245 230 223 218 216 217 217 218 222 230 240 247 252 252
336 335 330 328 327 325 328 330 328 333 336 326 314 329 338 325 317 322 303 297 308 311 314 316 310 315 331 325 322 319 320 333 333 333 103 167 269 325 327 320 321 312 306 318 320 319 315 305 302 303 295 289 291 287 289 301 305 308 321 322 312 310 309 283 239 238 200 158 179 224 249 256 253 242 227 220 217 218 219 217 219 221 222 231 240 246 253
335 335 331 328 324 320 320 322 321 321 320 309 292 303 322 323 302 306 296 288 302 314 313 313 315 317 318 315 312 310 311 319 328 328 308 291 308 322 315 304 296 293 311 326 316 305 297 290 283 274 271 273 273 271 273 274 271 267 278 288 286 285 281 275 265 246 212 156 150 238 233 231 235 227 217 215 212 216 221 221 219 216 217 233 247 255 260
332 331 329 325 320 317 314 312 311 309 304 295 282 283 299 307 277 274 284 290 303 311 305 301 306 306 306 308 306 305 308 315 320 315 302 305 314 313 308 301 284 290 326 324 309 300 294 286 272 254 247 253 257 258 259 258 253 245 242 251 261 260 247 250 256 247 243 228 207 223 226 215 120 76 103 195 206 215 222 227 230 227 228 238 247 254 259
329 329 325 318 314 313 310 305 302 299 296 288 272 268 275 274 255 254 259 279 292 302 302 299 298 297 299 305 306 304 307 309 307 301 294 296 305 308 311 304 294 307 321 312 305 303 296 287 273 251 236 235 243 246 246 244 242 236 227 228 240 248 245 246 241 237 247 248 220 214 202 88 112 121 120 146 170 185 209 228 231 231 234 237 245 259 268
328 327 322 314 310 308 304 302 298 292 290 282 265 262 262 243 232 247 258 269 284 293 295 294 295 298 302 307 309 307 306 306 302 300 299 297 299 306 308 298 298 307 309 303 302 299 292 288 280 254 222 213 225 232 229 229 231 229 221 216 223 234 243 246 236 230 236 240 232 233 268 277 226 191 148 148 155 149 205 242 216 178 140 171 238 259 272
326 323 316 310 308 306 301 299 295 289 288 283 268 261 259 241 229 237 241 254 282 290 286 284 296 308 310 308 307 307 306 309 309 306 301 298 295 299 301 299 298 298 296 298 299 292 287 289 279 254 212 207 224 225 205 208 214 216 217 214 211 219 232 237 231 227 229 241 243 240 249 257 231 176 147 132 117 101 61 284 203 136 114 137 230 251 274
321 316 311 309 308 305 300 297 293 290 289 285 267 253 253 242 225 225 233 238 267 281 285 292 297 300 301 299 298 298 299 304 311 309 303 304 311 311 305 296 290 290 290 288 288 290 282 269 261 260 246 232 257 257 206 211 199 187 198 206 204 210 224 233 239 236 224 230 239 232 232 244 119 142 146 139 135 126 136 246 224 140 113 126 241 259 283
316 312 311 310 308 305 301 297 294 292 288 283 270 250 244 238 221 218 226 228 240 262 278 287 289 286 285 289 292 293 297 301 300 301 305 312 316 314 315 309 285 274 276 271 258 263 271 266 258 257 250 1 301 268 240 229 204 165 173 195 198 202 211 216 227 230 222 229 237 234 235 221 84 120 137 124 121 166 204 230 207 129 114 102 267 277 295
313 313 312 310 307 305 303 299 296 293 288 286 278 257 241 233 222 217 220 236 246 260 272 272 271 274 280 292 297 294 296 298 294 294 297 299 310 318 320 319 304 249 239 272 267 260 270 272 271 266 256 87 282 273 274 243 220 175 162 187 193 197 202 207 218 222 222 229 233 238 249 231 144 200 176 108 81 237 226 232 120 126 171 221 240 265 292
313 313 312 311 309 307 305 301 298 295 290 289 282 259 237 227 219 212 211 227 240 250 267 270 267 271 273 279 283 280 279 284 284 290 290 289 328 333 308 295 293 258 228 259 267 268 272 271 274 279 274 238 235 279 311 274 238 187 174 199 200 198 200 206 219 223 219 221 228 240 241 135 64 283 271 263 250 239 256 328 317 244 262 269 249 261 283
313 313 313 312 310 308 306 303 300 296 292 290 284 264 241 229 219 211 210 222 243 254 266 268 264 267 268 265 267 270 275 275 269 269 277 284 327 329 304 261 161 291 254 240 252 262 268 274 301 276 270 269 257 281 277 237 219 214 224 227 213 202 206 209 212 216 223 224 222 225 217 82 37 337 279 230 254 312 345 324 299 307 323 312 294 298 313
313 312 312 311 309 308 307 304 301 298 295 293 287 273 250 230 220 218 218 222 235 259 266 264 261 264 268 267 267 268 268 267 266 269 276 281 292 302 300 318 331 306 298 289 282 276 285 294 303 276 275 286 274 263 270 257 228 209 226 253 242 219 222 227 215 208 221 217 205 209 310 4 15 348 308 317 331 337 339 327 316 319 322 317 312 315 319
312 311 311 310 309 309 307 304 303 301 298 297 292 281 258 230 221 222 221 219 225 244 260 273 279 275 273 271 268 264 261 261 263 262 264 271 270 262 271 290 288 278 305 319 294 284 299 301 300 287 281 282 271 264 269 271 252 204 197 234 233 199 188 286 267 279 272 249 260 326 323 310 321 340 333 330 330 331 332 328 318 311 316 321 309 306 312
312 311 312 311 310 310 308 306 307 304 300 299 294 285 273 244 220 214 215 216 225 244 256 266 274 274 271 268 263 257 254 254 254 250 246 250 260 260 259 268 274 272 274 281 287 306 312 305 309 305 291 288 288 278 264 256 258 246 224 225 225 212 178 320 282 289 289 275 273 286 288 287 298 313 318 318 319 322 325 321 313 314 322 317 301 301 308
312 311 312 312 311 310 309 308 308 305 301 300 294 288 284 263 221 204 204 212 227 252 256 253 252 259 275 286 277 256 244 241 244 242 235 231 235 247 248 246 251 260 260 258 272 297 301 296 300 291 285 291 292 280 268 259 260 267 256 242 238 237 227 225 252 270 274 266 266 278 285 291 302 308 307 305 304 305 308 306 304 309 312 306 299 295 292
311 312 312 312 310 310 310 309 308 306 304 302 297 291 288 269 222 201 199 208 223 244 263 257 241 250 282 304 296 267 246 239 239 235 227 222 223 233 246 245 242 250 264 273 262 260 271 283 283 276 278 287 283 272 274 276 277 281 269 253 248 257 257 239 246 252 255 259 273 287 291 292 292 288 285 289 292 296 302 306 306 305 297 288 286 281 272
312 312 312 312 311 311 311 310 310 309 307 306 302 295 290 278 234 205 199 203 208 217 249 271 261 254 287 299 279 266 263 257 248 240 232 226 225 233 247 259 259 254 259 268 262 262 269 271 273 276 275 272 271 276 281 287 288 284 274 265 263 271 274 264 259 259 262 264 267 272 277 278 273 268 271 289 303 308 312 313 312 307 296 280 272 271 261
313 313 312 313 312 313 313 313 313 312 310 309 305 295 288 280 245 212 201 194 181 212 242 251 262 297 303 292 281 273 266 257 249 243 237 232 229 233 241 250 256 256 255 252 246 248 256 255 256 262 263 269 279 276 273 278 280 276 270 266 263 260 257 257 259 260 259 257 256 259 266 269 272 284 302 312 316 316 313 311 313 313 305 293 280 269 247
313 313 313 314 313 314 316 316 314 314 313 311 305 294 286 276 248 223 212 205 202 222 278 265 290 314 304 294 290 278 259 247 241 239 238 234 231 232 235 240 248 251 253 254 247 239 241 246 251 255 260 275 281 271 266 269 267 264 261 257 252 252 253 254 257 259 261 266 274 283 285 279 282 293 300 302 304 305 301 300 305 309 305 299 291 275 251
314 314 314 315 314 316 318 317 316 316 317 314 307 293 284 274 246 229 221 214 208 212 265 272 276 297 293 291 297 284 260 247 242 241 241 236 229 227 230 234 239 241 246 252 253 250 251 254 262 266 262 265 278 277 275 269 260 257 258 256 251 250 250 251 257 263 267 272 278 283 282 275 276 283 287 289 292 294 291 291 295 298 296 294 290 278 261
316 316 316 317 317 319 320 319 317 316 314 309 298 278 274 279 239 228 226 219 210 203 214 257 258 294 296 283 284 280 267 253 242 236 234 232 227 221 220 225 231 234 238 245 247 251 259 261 261 263 254 240 251 272 270 267 267 267 265 261 257 254 251 250 253 259 264 269 271 271 271 271 276 281 280 277 278 280 281 283 285 285 286 287 285 280 274
318 318 318 321 323 324 324 322 319 314 290 239 245 264 325 45 212 216 220 218 212 203 200 249 250 293 305 274 267 274 270 254 241 233 227 227 228 220 213 215 221 222 225 236 242 245 252 252 253 263 255 233 231 254 263 267 275 273 268 264 257 250 251 252 251 253 256 259 260 263 266 268 271 273 270 268 270 272 273 274 275 278 280 278 274 272 276
320 320 323 327 329 329 332 338 343 336 191 179 181 209 179 93 109 143 180 201 205 199 172 250 256 289 301 274 272 276 269 260 255 245 229 221 225 223 213 211 217 219 220 230 239 239 245 246 248 259 256 231 222 246 259 258 261 263 264 266 257 239 240 246 249 249 246 242 248 259 264 263 261 261 263 265 267 266 266 270 273 276 276 269 259 250 248
324 325 328 332 333 335 352 22 38 56 118 164 189 226 260 279 285 149 155 169 176 153 97 197 263 286 293 312 312 281 265 261 250 238 226 215 216 223 216 211 219 222 217 220 229 233 240 243 246 255 255 233 221 245 253 250 253 258 264 269 265 250 245 247 250 248 242 238 244 254 260 263 264 264 264 263 262 261 265 269 271 270 264 255 243 226 204
328 330 334 336 335 347 49 61 52 54 72 88 96 45 327 310 257 162 148 141 121 75 85 164 260 275 278 304 316 241 239 263 241 224 223 207 207 221 217 204 212 220 213 215 230 244 247 250 255 260 256 234 226 245 254 254 257 261 265 269 269 268 268 265 256 246 241 243 249 253 257 261 264 263 260 259 259 259 261 262 258 251 244 239 233 218 186
333 337 338 337 343 72 96 73 46 40 66 69 57 26 354 344 165 156 147 130 106 105 127 192 252 277 289 302 331 98 246 274 267 248 233 191 202 222 212 185 200 215 211 212 231 245 251 257 260 259 256 241 231 235 247 258 264 266 267 270 275 278 277 270 256 239 232 234 240 246 250 252 253 252 251 252 254 253 252 249 239 228 226 229 225 215 193
340 342 340 348 50 111 116 71 36 23 23 28 21 10 14 68 147 157 152 119 99 139 150 196 205 224 279 296 332 354 293 288 303 297 267 202 196 206 200 197 211 215 207 217 235 245 249 248 253 263 262 250 245 253 271 280 281 278 274 276 279 278 271 265 257 249 244 238 237 240 241 241 244 245 244 247 248 244 241 236 220 205 214 225 217 201 191
353 360 3 32 85 107 123 81 35 6 353 11 112 109 105 115 140 157 163 149 140 141 114 194 224 244 274 278 300 328 295 296 330 337 279 291 272 180 193 221 230 212 213 231 247 261 256 225 236 266 267 263 276 292 296 291 284 279 278 279 278 272 268 265 257 254 255 252 247 246 244 240 238 238 239 241 238 231 228 224 206 189 203 219 211 185 165
12 26 39 260 321 19 51 33 352 348 10 129 144 139 130 131 145 162 180 212 201 153 132 182 238 251 253 254 286 342 338 309 319 333 350 342 329 220 198 236 270 309 278 269 307 324 296 251 243 265 272 288 302 301 299 295 286 276 271 270 269 268 270 264 249 245 249 250 244 238 234 231 230 229 230 230 225 218 215 208 190 184 204 212 201 170 145
15 18 4 326 5 29 10 335 333 344 103 155 174 189 165 151 163 174 182 203 204 168 159 215 236 202 198 228 279 340 339 312 321 327 338 357 353 343 332 328 340 335 305 308 4 2 320 288 287 287 296 313 313 309 313 322 323 309 284 272 271 272 272 266 249 235 229 230 235 230 219 214 214 213 214 212 205 198 193 180 170 197 212 205 187 159 136
13 4 354 14 20 356 328 330 340 3 165 194 233 271 39 17 349 323 305 332 325 163 175 211 220 194 199 230 289 342 198 271 349 344 342 0 358 335 338 353 350 332 305 308 9 13 332 298 308 319 322 325 323 322 325 331 338 344 338 318 301 289 280 274 265 240 216 217 226 223 204 196 195 192 188 183 176 172 171 170 182 202 205 191 172 152 137
7 2 352 341 328 321 327 341 351 328 248 325 10 22 9 11 15 358 357 7 10 18 177 213 270 208 190 211 232 218 190 197 273 9 17 8 339 319 343 347 336 340 341 335 350 351 321 306 329 344 336 332 333 337 340 340 342 346 348 347 345 335 313 296 288 247 212 212 204 179 167 174 180 173 168 166 161 154 157 177 194 198 186 167 155 151 146
339 332 313 303 300 302 321 348 1 0 356 3 12 12 8 13 14 5 11 21 11 346 324 318 332 357 137 179 210 219 182 184 199 188 75 21 7 3 358 343 342 7 4 332 315 320 332 349 0 350 338 337 340 345 347 346 345 348 353 358 7 17 16 11 17 31 295 244 161 140 148 160 163 151 142 144 139 135 156 186 201 192 155 134 136 144 143
355 347 323 303 298 303 341 0 3 19 23 7 3 6 7 5 6 7 13 15 348 337 343 339 322 329 116 155 203 214 172 188 217 244 21 38 38 10 12 15 11 359 328 314 334 355 11 17 4 340 330 337 345 348 347 345 343 348 359 7 18 30 30 20 14 25 45 55 67 91 113 128 121 101 98 118 135 137 151 164 145 100 87 86 90 102 112
357 346 337 325 333 348 5 13 10 18 24 18 7 2 359 360 5 9 4 352 340 339 343 342 344 4 29 40 233 167 134 207 213 194 41 58 30 17 25 29 12 340 315 350 6 11 20 14 352 338 337 346 351 349 350 351 349 350 1 13 23 33 35 26 21 32 44 45 44 50 58 69 73 68 63 73 95 104 117 116 101 90 83 77 71 74 87
345 338 357 21 14 3 14 28 15 11 20 16 358 352 354 355 357 4 6 354 333 332 340 343 351 11 24 24 24 38 17 318 211 32 7 17 42 37 28 12 352 354 10 18 16 18 16 0 346 342 347 353 354 353 354 358 360 1 9 18 24 29 33 31 32 39 43 41 41 45 46 51 62 63 53 52 57 58 66 88 91 86 81 77 71 67 71
24 8 10 32 31 21 32 36 18 10 16 9 355 355 0 358 357 2 3 351 342 354 2 353 348 3 21 29 46 46 23 10 29 16 348 15 46 41 17 357 14 20 22 22 23 24 12 355 345 344 346 347 350 355 358 1 3 8 17 24 24 25 29 31 33 40 44 44 46 48 44 46 59 67 62 57 53 49 52 68 76 77 77 77 73 67 62
42 15 15 46 44 34 40 42 31 20 19 15 9 8 8 6 7 10 4 354 352 4 11 2 355 2 8 8 29 48 39 29 35 28 5 18 44 39 31 38 35 23 21 24 23 15 359 347 342 342 341 338 342 354 2 5 5 7 14 19 20 22 28 30 31 35 38 39 42 46 44 44 54 61 61 57 50 43 46 57 64 67 69 69 68 65 61
39 16 19 43 48 38 35 35 36 33 26 18 14 13 12 14 20 18 10 359 352 359 7 10 14 23 13 358 15 37 33 29 40 40 25 21 35 29 31 45 44 30 25 26 12 351 344 341 335 336 339 338 340 352 2 8 11 13 17 18 14 16 26 32 33 35 37 35 35 39 40 41 47 52 56 55 48 42 45 53 59 63 65 67 66 65 62
52 37 28 41 55 45 29 23 31 36 28 18 15 14 12 16 21 18 9 357 354 2 13 12 12 28 33 23 30 40 32 25 35 40 36 43 51 41 32 44 47 38 24 11 351 337 336 332 328 337 347 350 349 352 358 4 11 16 21 23 18 15 22 27 30 34 37 37 37 39 40 43 47 50 52 55 53 47 47 52 58 63 66 68 68 66 63
46 41 29 28 38 38 26 23 33 35 25 19 19 15 9 12 17 12 2 355 355 10 31 30 24 31 36 33 45 51 41 28 34 45 45 47 51 51 52 54 48 28 1 348 339 336 341 343 344 350 355 356 357 359 0 2 7 10 14 18 19 21 25 28 29 32 35 37 38 40 41 44 48 50 51 57 62 60 53 49 51 59 64 66 67 67 64
43 47 41 33 33 35 31 31 36 33 24 20 20 14 6 8 9 359 351 353 7 31 38 32 29 37 39 35 40 50 45 34 43 52 52 48 44 47 54 54 37 8 0 8 4 1 8 12 10 6 1 360 2 4 5 6 11 13 14 16 18 22 28 31 33 34 37 39 40 39 38 41 48 53 55 57 60 60 55 47 46 52 56 55 55 60 62
43 52 53 45 36 33 32 33 35 32 27 24 22 13 9 10 4 351 349 1 26 39 38 38 44 49 45 38 33 39 49 50 47 48 49 47 39 35 37 29 1 347 355 9 19 28 31 27 20 16 13 8 5 5 7 12 16 18 19 20 21 24 28 32 33 35 40 43 43 39 35 38 44 50 52 52 52 53 50 42 42 47 50 48 49 55 59